owner,sensor,date,latitude,longitude,vertical_datum,wind_speed,wind_to_direction,wind_speed_of_gust,qcFlag 
LOOP,urn:ioos:station:wmo:lopl1:1,2017-01-01T00:16:00Z,28.8850,-90.0250,10.0,10.7,-9999.0,14.1,'11111222,99999999,11111222' 
LOOP,urn:ioos:station:wmo:lopl1:1,2017-01-01T01:16:00Z,28.8850,-90.0250,10.0,11.5,-9999.0,15.4,'11111222,99999999,11111222' 
LOOP,urn:ioos:station:wmo:lopl1:1,2017-01-01T02:16:00Z,28.8850,-90.0250,10.0,11.1,-9999.0,14.7,'11111222,99999999,11111222' 
LOOP,urn:ioos:station:wmo:lopl1:1,2017-01-01T03:16:00Z,28.8850,-90.0250,10.0,10.3,-9999.0,14.1,'11111222,99999999,11111222' 
LOOP,urn:ioos:station:wmo:lopl1:1,2017-01-01T04:16:00Z,28.8850,-90.0250,10.0,9.7,-9999.0,13.3,'11111222,99999999,11111222' 
LOOP,urn:ioos:station:wmo:lopl1:1,2017-01-01T05:16:00Z,28.8850,-90.0250,10.0,9.1,-9999.0,12.8,'11111222,99999999,11111222' 
LOOP,urn:ioos:station:wmo:lopl1:1,2017-01-01T06:16:00Z,28.8850,-90.0250,10.0,9.2,-9999.0,12.2,'11111222,99999999,11111222' 
LOOP,urn:ioos:station:wmo:lopl1:1,2017-01-01T07:16:00Z,28.8850,-90.0250,10.0,10.2,-9999.0,13.2,'11111222,99999999,11111222' 
LOOP,urn:ioos:station:wmo:lopl1:1,2017-01-01T08:16:00Z,28.8850,-90.0250,10.0,10.8,-9999.0,13.3,'11111222,99999999,11111222' 
LOOP,urn:ioos:station:wmo:lopl1:1,2017-01-01T09:16:00Z,28.8850,-90.0250,10.0,10.9,-9999.0,14.0,'11111222,99999999,11111222' 
LOOP,urn:ioos:station:wmo:lopl1:1,2017-01-01T10:21:00Z,28.8850,-90.0250,10.0,8.6,-9999.0,11.3,'11111222,99999999,11111222' 
LOOP,urn:ioos:station:wmo:lopl1:1,2017-01-01T11:21:00Z,28.8850,-90.0250,10.0,9.2,-9999.0,12.3,'11111222,99999999,11111222' 
LOOP,urn:ioos:station:wmo:lopl1:1,2017-01-01T12:21:00Z,28.8850,-90.0250,10.0,8.0,-9999.0,12.2,'11111222,99999999,11111222' 
LOOP,urn:ioos:station:wmo:lopl1:1,2017-01-01T13:21:00Z,28.8850,-90.0250,10.0,9.7,-9999.0,12.0,'11111222,99999999,11111222' 
LOOP,urn:ioos:station:wmo:lopl1:1,2017-01-01T14:21:00Z,28.8850,-90.0250,10.0,9.3,-9999.0,12.2,'11111222,99999999,11111222' 
LOOP,urn:ioos:station:wmo:lopl1:1,2017-01-01T15:21:00Z,28.8850,-90.0250,10.0,8.9,-9999.0,11.4,'11111222,99999999,11111222' 
LOOP,urn:ioos:station:wmo:lopl1:1,2017-01-01T16:21:00Z,28.8850,-90.0250,10.0,9.8,-9999.0,11.3,'11111222,99999999,11111222' 
LOOP,urn:ioos:station:wmo:lopl1:1,2017-01-01T17:21:00Z,28.8850,-90.0250,10.0,9.8,-9999.0,10.9,'11111222,99999999,11111222' 
LOOP,urn:ioos:station:wmo:lopl1:1,2017-01-01T18:21:00Z,28.8850,-90.0250,10.0,8.1,-9999.0,9.9,'11111222,99999999,11111222' 
LOOP,urn:ioos:station:wmo:lopl1:1,2017-01-01T19:21:00Z,28.8850,-90.0250,10.0,6.5,-9999.0,8.7,'11111222,99999999,11111222' 
LOOP,urn:ioos:station:wmo:lopl1:1,2017-01-01T20:21:00Z,28.8850,-90.0250,10.0,6.3,-9999.0,8.3,'11111222,99999999,11111222' 
LOOP,urn:ioos:station:wmo:lopl1:1,2017-01-01T21:21:00Z,28.8850,-90.0250,10.0,5.7,-9999.0,7.7,'11111222,99999999,11111222' 
LOOP,urn:ioos:station:wmo:lopl1:1,2017-01-01T22:21:00Z,28.8850,-90.0250,10.0,8.5,-9999.0,9.6,'11111222,99999999,11111222' 
LOOP,urn:ioos:station:wmo:lopl1:1,2017-01-01T23:26:00Z,28.8850,-90.0250,10.0,1.5,-9999.0,3.3,'11111222,99999999,11111222' 
LOOP,urn:ioos:station:wmo:lopl1:1,2017-01-02T00:26:00Z,28.8850,-90.0250,10.0,3.0,-9999.0,5.3,'11111222,99999999,11111222' 
LOOP,urn:ioos:station:wmo:lopl1:1,2017-01-02T01:26:00Z,28.8850,-90.0250,10.0,6.4,179.0,8.7,'11111222,11111222,11111222' 
LOOP,urn:ioos:station:wmo:lopl1:1,2017-01-02T02:26:00Z,28.8850,-90.0250,10.0,5.1,-9999.0,6.7,'11111222,99999999,11111222' 
LOOP,urn:ioos:station:wmo:lopl1:1,2017-01-02T03:26:00Z,28.8850,-90.0250,10.0,4.4,51.0,6.2,'11111222,11111222,11111222' 
LOOP,urn:ioos:station:wmo:lopl1:1,2017-01-02T04:26:00Z,28.8850,-90.0250,10.0,5.8,61.0,6.9,'11111222,11111222,11111222' 
LOOP,urn:ioos:station:wmo:lopl1:1,2017-01-02T05:26:00Z,28.8850,-90.0250,10.0,6.1,75.0,7.6,'11111222,11111222,11111222' 
LOOP,urn:ioos:station:wmo:lopl1:1,2017-01-02T06:26:00Z,28.8850,-90.0250,10.0,7.9,155.0,8.7,'11111222,11111222,11111222' 
LOOP,urn:ioos:station:wmo:lopl1:1,2017-01-02T07:26:00Z,28.8850,-90.0250,10.0,6.8,161.0,7.5,'11111222,11111222,11111222' 
LOOP,urn:ioos:station:wmo:lopl1:1,2017-01-02T08:26:00Z,28.8850,-90.0250,10.0,7.8,163.0,8.4,'11111222,11111222,11111222' 
LOOP,urn:ioos:station:wmo:lopl1:1,2017-01-02T09:31:00Z,28.8850,-90.0250,10.0,7.1,161.0,7.7,'11111222,11111222,11111222' 
LOOP,urn:ioos:station:wmo:lopl1:1,2017-01-02T10:31:00Z,28.8850,-90.0250,10.0,8.8,158.0,9.6,'11111222,11111222,11111222' 
LOOP,urn:ioos:station:wmo:lopl1:1,2017-01-02T11:31:00Z,28.8850,-90.0250,10.0,9.1,160.0,10.0,'11111222,11111222,11111222' 
LOOP,urn:ioos:station:wmo:lopl1:1,2017-01-02T12:31:00Z,28.8850,-90.0250,10.0,9.4,161.0,10.8,'11111222,11111222,11111222' 
LOOP,urn:ioos:station:wmo:lopl1:1,2017-01-02T13:31:00Z,28.8850,-90.0250,10.0,12.8,164.0,14.4,'11111222,11111222,11111222' 
LOOP,urn:ioos:station:wmo:lopl1:1,2017-01-02T14:31:00Z,28.8850,-90.0250,10.0,14.1,168.0,16.4,'11111222,11111222,11111222' 
LOOP,urn:ioos:station:wmo:lopl1:1,2017-01-02T15:31:00Z,28.8850,-90.0250,10.0,7.0,161.0,10.9,'11111222,11111222,11111222' 
LOOP,urn:ioos:station:wmo:lopl1:1,2017-01-02T16:31:00Z,28.8850,-90.0250,10.0,10.3,-9999.0,12.5,'11111222,99999999,11111222' 
LOOP,urn:ioos:station:wmo:lopl1:1,2017-01-02T17:31:00Z,28.8850,-90.0250,10.0,9.1,-9999.0,12.2,'11111222,99999999,11111222' 
LOOP,urn:ioos:station:wmo:lopl1:1,2017-01-02T18:31:00Z,28.8850,-90.0250,10.0,10.4,-9999.0,13.8,'11111222,99999999,11111222' 
LOOP,urn:ioos:station:wmo:lopl1:1,2017-01-02T19:31:00Z,28.8850,-90.0250,10.0,14.6,-9999.0,16.3,'11111222,99999999,11111222' 
LOOP,urn:ioos:station:wmo:lopl1:1,2017-01-02T20:31:00Z,28.8850,-90.0250,10.0,15.0,-9999.0,17.5,'11111222,99999999,11111222' 
LOOP,urn:ioos:station:wmo:lopl1:1,2017-01-02T21:36:00Z,28.8850,-90.0250,10.0,13.4,-9999.0,14.6,'11111222,99999999,11111222' 
LOOP,urn:ioos:station:wmo:lopl1:1,2017-01-02T22:36:00Z,28.8850,-90.0250,10.0,12.9,-9999.0,14.2,'11111222,99999999,11111222' 
LOOP,urn:ioos:station:wmo:lopl1:1,2017-01-02T23:36:00Z,28.8850,-90.0250,10.0,12.6,-9999.0,14.5,'11111222,99999999,11111222' 
LOOP,urn:ioos:station:wmo:lopl1:1,2017-01-03T00:36:00Z,28.8850,-90.0250,10.0,12.2,-9999.0,13.4,'11111222,99999999,11111222' 
LOOP,urn:ioos:station:wmo:lopl1:1,2017-01-03T01:36:00Z,28.8850,-90.0250,10.0,9.4,-9999.0,12.2,'11111222,99999999,11111222' 
LOOP,urn:ioos:station:wmo:lopl1:1,2017-01-03T02:36:00Z,28.8850,-90.0250,10.0,3.0,-9999.0,4.1,'11111222,99999999,11111222' 
LOOP,urn:ioos:station:wmo:lopl1:1,2017-01-03T03:36:00Z,28.8850,-90.0250,10.0,4.4,-9999.0,5.0,'11111222,99999999,11111222' 
LOOP,urn:ioos:station:wmo:lopl1:1,2017-01-03T04:36:00Z,28.8850,-90.0250,10.0,5.7,-9999.0,6.3,'11111222,99999999,11111222' 
LOOP,urn:ioos:station:wmo:lopl1:1,2017-01-03T05:36:00Z,28.8850,-90.0250,10.0,7.3,-9999.0,7.7,'11111222,99999999,11111222' 
LOOP,urn:ioos:station:wmo:lopl1:1,2017-01-03T06:36:00Z,28.8850,-90.0250,10.0,7.2,-9999.0,8.3,'11111222,99999999,11111222' 
LOOP,urn:ioos:station:wmo:lopl1:1,2017-01-03T07:37:00Z,28.8850,-90.0250,10.0,3.0,-9999.0,5.6,'11111222,99999999,11111222' 
LOOP,urn:ioos:station:wmo:lopl1:1,2017-01-03T08:42:00Z,28.8850,-90.0250,10.0,6.3,325.0,9.0,'11111222,11111222,11111222' 
LOOP,urn:ioos:station:wmo:lopl1:1,2017-01-03T09:42:00Z,28.8850,-90.0250,10.0,8.3,328.0,11.1,'11111222,11111222,11111222' 
LOOP,urn:ioos:station:wmo:lopl1:1,2017-01-03T10:42:00Z,28.8850,-90.0250,10.0,5.9,329.0,7.9,'11111222,11111222,11111222' 
LOOP,urn:ioos:station:wmo:lopl1:1,2017-01-03T11:42:00Z,28.8850,-90.0250,10.0,4.0,332.0,5.8,'11111222,11111222,11111222' 
LOOP,urn:ioos:station:wmo:lopl1:1,2017-01-03T12:42:00Z,28.8850,-90.0250,10.0,4.1,343.0,6.7,'11111222,11111222,11111222' 
LOOP,urn:ioos:station:wmo:lopl1:1,2017-01-03T13:42:00Z,28.8850,-90.0250,10.0,2.4,352.0,3.9,'11111222,11111222,11111222' 
LOOP,urn:ioos:station:wmo:lopl1:1,2017-01-03T14:42:00Z,28.8850,-90.0250,10.0,2.4,9.0,3.3,'11111222,11111222,11111222' 
LOOP,urn:ioos:station:wmo:lopl1:1,2017-01-03T15:42:00Z,28.8850,-90.0250,10.0,2.1,67.0,2.7,'11111222,11111222,11111222' 
LOOP,urn:ioos:station:wmo:lopl1:1,2017-01-03T16:42:00Z,28.8850,-90.0250,10.0,1.4,80.0,2.1,'11111222,11111222,11111222' 
LOOP,urn:ioos:station:wmo:lopl1:1,2017-01-03T17:42:00Z,28.8850,-90.0250,10.0,2.5,156.0,3.3,'11111222,11111222,11111222' 
LOOP,urn:ioos:station:wmo:lopl1:1,2017-01-03T18:42:00Z,28.8850,-90.0250,10.0,0.7,293.0,1.8,'11111222,11111222,11111222' 
LOOP,urn:ioos:station:wmo:lopl1:1,2017-01-03T19:47:00Z,28.8850,-90.0250,10.0,1.4,297.0,2.9,'11111222,11111222,11111222' 
LOOP,urn:ioos:station:wmo:lopl1:1,2017-01-03T20:47:00Z,28.8850,-90.0250,10.0,2.0,-9999.0,3.3,'11111222,99999999,11111222' 
LOOP,urn:ioos:station:wmo:lopl1:1,2017-01-03T21:47:00Z,28.8850,-90.0250,10.0,2.6,274.0,4.0,'11111222,11111222,11111222' 
LOOP,urn:ioos:station:wmo:lopl1:1,2017-01-03T22:47:00Z,28.8850,-90.0250,10.0,4.3,286.0,6.1,'11111222,11111222,11111222' 
LOOP,urn:ioos:station:wmo:lopl1:1,2017-01-03T23:47:00Z,28.8850,-90.0250,10.0,4.8,290.0,6.4,'11111222,11111222,11111222' 
LOOP,urn:ioos:station:wmo:lopl1:1,2017-01-04T00:47:00Z,28.8850,-90.0250,10.0,4.0,304.0,5.6,'11111222,11111222,11111222' 
LOOP,urn:ioos:station:wmo:lopl1:1,2017-01-04T01:47:00Z,28.8850,-90.0250,10.0,3.4,285.0,4.4,'11111222,11111222,11111222' 
LOOP,urn:ioos:station:wmo:lopl1:1,2017-01-04T02:47:00Z,28.8850,-90.0250,10.0,3.0,274.0,4.7,'11111222,11111222,11111222' 
LOOP,urn:ioos:station:wmo:lopl1:1,2017-01-04T03:47:00Z,28.8850,-90.0250,10.0,3.8,279.0,6.4,'11111222,11111222,11111222' 
LOOP,urn:ioos:station:wmo:lopl1:1,2017-01-04T04:52:00Z,28.8850,-90.0250,10.0,4.5,273.0,6.7,'11111222,11111222,11111222' 
LOOP,urn:ioos:station:wmo:lopl1:1,2017-01-04T05:52:00Z,28.8850,-90.0250,10.0,6.3,292.0,8.3,'11111222,11111222,11111222' 
LOOP,urn:ioos:station:wmo:lopl1:1,2017-01-04T06:52:00Z,28.8850,-90.0250,10.0,6.1,309.0,9.1,'11111222,11111222,11111222' 
LOOP,urn:ioos:station:wmo:lopl1:1,2017-01-04T07:52:00Z,28.8850,-90.0250,10.0,4.8,313.0,7.9,'11111222,11111222,11111222' 
LOOP,urn:ioos:station:wmo:lopl1:1,2017-01-04T08:52:00Z,28.8850,-90.0250,10.0,5.8,331.0,7.6,'11111222,11111222,11111222' 
LOOP,urn:ioos:station:wmo:lopl1:1,2017-01-04T09:52:00Z,28.8850,-90.0250,10.0,7.0,328.0,9.6,'11111222,11111222,11111222' 
LOOP,urn:ioos:station:wmo:lopl1:1,2017-01-04T10:52:00Z,28.8850,-90.0250,10.0,6.6,337.0,10.4,'11111222,11111222,11111222' 
LOOP,urn:ioos:station:wmo:lopl1:1,2017-01-04T11:57:00Z,28.8850,-90.0250,10.0,5.7,341.0,8.0,'11111222,11111222,11111222' 
LOOP,urn:ioos:station:wmo:lopl1:1,2017-01-04T12:57:00Z,28.8850,-90.0250,10.0,9.4,357.0,12.3,'11111222,11111222,11111222' 
LOOP,urn:ioos:station:wmo:lopl1:1,2017-01-04T13:57:00Z,28.8850,-90.0250,10.0,6.7,349.0,9.5,'11111222,11111222,11111222' 
LOOP,urn:ioos:station:wmo:lopl1:1,2017-01-04T14:57:00Z,28.8850,-90.0250,10.0,9.6,1.0,12.2,'11111222,11111222,11111222' 
LOOP,urn:ioos:station:wmo:lopl1:1,2017-01-04T15:57:00Z,28.8850,-90.0250,10.0,9.1,17.0,11.7,'11111222,11111222,11111222' 
LOOP,urn:ioos:station:wmo:lopl1:1,2017-01-04T16:57:00Z,28.8850,-90.0250,10.0,9.1,12.0,11.4,'11111222,11111222,11111222' 
LOOP,urn:ioos:station:wmo:lopl1:1,2017-01-04T17:57:00Z,28.8850,-90.0250,10.0,6.6,5.0,9.2,'11111222,11111222,11111222' 
LOOP,urn:ioos:station:wmo:lopl1:1,2017-01-04T18:57:00Z,28.8850,-90.0250,10.0,6.8,5.0,8.5,'11111222,11111222,11111222' 
LOOP,urn:ioos:station:wmo:lopl1:1,2017-01-04T19:57:00Z,28.8850,-90.0250,10.0,3.4,358.0,5.1,'11111222,11111222,11111222' 
LOOP,urn:ioos:station:wmo:lopl1:1,2017-01-04T20:57:00Z,28.8850,-90.0250,10.0,4.3,2.0,6.1,'11111222,11111222,11111222' 
LOOP,urn:ioos:station:wmo:lopl1:1,2017-01-04T21:57:00Z,28.8850,-90.0250,10.0,4.5,3.0,6.4,'11111222,11111222,11111222' 
LOOP,urn:ioos:station:wmo:lopl1:1,2017-01-04T22:57:00Z,28.8850,-90.0250,10.0,4.8,345.0,6.3,'11111222,11111222,11111222' 
LOOP,urn:ioos:station:wmo:lopl1:1,2017-01-04T23:57:00Z,28.8850,-90.0250,10.0,5.8,350.0,7.5,'11111222,11111222,11111222' 
LOOP,urn:ioos:station:wmo:lopl1:1,2017-01-05T00:57:00Z,28.8850,-90.0250,10.0,6.2,17.0,7.9,'11111222,11111222,11111222' 
LOOP,urn:ioos:station:wmo:lopl1:1,2017-01-05T01:57:00Z,28.8850,-90.0250,10.0,6.0,11.0,7.2,'11111222,11111222,11111222' 
LOOP,urn:ioos:station:wmo:lopl1:1,2017-01-05T02:57:00Z,28.8850,-90.0250,10.0,5.6,24.0,7.5,'11111222,11111222,11111222' 
LOOP,urn:ioos:station:wmo:lopl1:1,2017-01-05T03:57:00Z,28.8850,-90.0250,10.0,5.5,35.0,7.6,'11111222,11111222,11111222' 
LOOP,urn:ioos:station:wmo:lopl1:1,2017-01-05T05:02:00Z,28.8850,-90.0250,10.0,4.0,67.0,5.3,'11111222,11111222,11111222' 
LOOP,urn:ioos:station:wmo:lopl1:1,2017-01-05T06:02:00Z,28.8850,-90.0250,10.0,3.9,77.0,5.5,'11111222,11111222,11111222' 
LOOP,urn:ioos:station:wmo:lopl1:1,2017-01-05T07:02:00Z,28.8850,-90.0250,10.0,2.8,88.0,4.1,'11111222,11111222,11111222' 
LOOP,urn:ioos:station:wmo:lopl1:1,2017-01-05T08:02:00Z,28.8850,-90.0250,10.0,4.0,138.0,5.1,'11111222,11111222,11111222' 
LOOP,urn:ioos:station:wmo:lopl1:1,2017-01-05T09:02:00Z,28.8850,-90.0250,10.0,2.9,117.0,4.1,'11111222,11111222,11111222' 
LOOP,urn:ioos:station:wmo:lopl1:1,2017-01-05T10:02:00Z,28.8850,-90.0250,10.0,3.9,134.0,5.3,'11111222,11111222,11111222' 
LOOP,urn:ioos:station:wmo:lopl1:1,2017-01-05T11:02:00Z,28.8850,-90.0250,10.0,2.4,85.0,3.3,'11111222,11111222,11111222' 
LOOP,urn:ioos:station:wmo:lopl1:1,2017-01-05T12:02:00Z,28.8850,-90.0250,10.0,1.8,60.0,2.6,'11111222,11111222,11111222' 
LOOP,urn:ioos:station:wmo:lopl1:1,2017-01-05T13:02:00Z,28.8850,-90.0250,10.0,2.9,89.0,3.6,'11111222,11111222,11111222' 
LOOP,urn:ioos:station:wmo:lopl1:1,2017-01-05T14:02:00Z,28.8850,-90.0250,10.0,4.3,112.0,5.1,'11111222,11111222,11111222' 
LOOP,urn:ioos:station:wmo:lopl1:1,2017-01-05T15:02:00Z,28.8850,-90.0250,10.0,3.8,127.0,4.3,'11111222,11111222,11111222' 
LOOP,urn:ioos:station:wmo:lopl1:1,2017-01-05T16:07:00Z,28.8850,-90.0250,10.0,3.4,114.0,3.8,'11111222,11111222,11111222' 
LOOP,urn:ioos:station:wmo:lopl1:1,2017-01-05T17:07:00Z,28.8850,-90.0250,10.0,3.6,112.0,4.5,'11111222,11111222,11111222' 
LOOP,urn:ioos:station:wmo:lopl1:1,2017-01-05T18:07:00Z,28.8850,-90.0250,10.0,6.1,-9999.0,7.5,'11111222,99999999,11111222' 
LOOP,urn:ioos:station:wmo:lopl1:1,2017-01-05T19:07:00Z,28.8850,-90.0250,10.0,5.1,-9999.0,6.3,'11111222,99999999,11111222' 
LOOP,urn:ioos:station:wmo:lopl1:1,2017-01-05T20:07:00Z,28.8850,-90.0250,10.0,4.6,-9999.0,5.6,'11111222,99999999,11111222' 
LOOP,urn:ioos:station:wmo:lopl1:1,2017-01-05T21:07:00Z,28.8850,-90.0250,10.0,3.9,-9999.0,5.3,'11111222,99999999,11111222' 
LOOP,urn:ioos:station:wmo:lopl1:1,2017-01-05T22:07:00Z,28.8850,-90.0250,10.0,4.1,-9999.0,5.0,'11111222,99999999,11111222' 
LOOP,urn:ioos:station:wmo:lopl1:1,2017-01-05T23:07:00Z,28.8850,-90.0250,10.0,4.0,-9999.0,5.1,'11111222,99999999,11111222' 
LOOP,urn:ioos:station:wmo:lopl1:1,2017-01-06T00:07:00Z,28.8850,-90.0250,10.0,3.0,-9999.0,4.7,'11111222,99999999,11111222' 
LOOP,urn:ioos:station:wmo:lopl1:1,2017-01-06T01:07:00Z,28.8850,-90.0250,10.0,3.6,-9999.0,4.7,'11111222,99999999,11111222' 
LOOP,urn:ioos:station:wmo:lopl1:1,2017-01-06T02:07:00Z,28.8850,-90.0250,10.0,3.3,166.0,4.9,'11111222,11111222,11111222' 
LOOP,urn:ioos:station:wmo:lopl1:1,2017-01-06T03:07:00Z,28.8850,-90.0250,10.0,4.0,-9999.0,6.2,'11111222,99999999,11111222' 
LOOP,urn:ioos:station:wmo:lopl1:1,2017-01-06T04:07:00Z,28.8850,-90.0250,10.0,5.8,-9999.0,8.3,'11111222,99999999,11111222' 
LOOP,urn:ioos:station:wmo:lopl1:1,2017-01-06T05:12:00Z,28.8850,-90.0250,10.0,6.1,-9999.0,8.3,'11111222,99999999,11111222' 
LOOP,urn:ioos:station:wmo:lopl1:1,2017-01-06T06:12:00Z,28.8850,-90.0250,10.0,5.7,-9999.0,7.4,'11111222,99999999,11111222' 
LOOP,urn:ioos:station:wmo:lopl1:1,2017-01-06T07:12:00Z,28.8850,-90.0250,10.0,4.5,-9999.0,6.0,'11111222,99999999,11111222' 
LOOP,urn:ioos:station:wmo:lopl1:1,2017-01-06T08:12:00Z,28.8850,-90.0250,10.0,5.0,-9999.0,6.8,'11111222,99999999,11111222' 
LOOP,urn:ioos:station:wmo:lopl1:1,2017-01-06T09:12:00Z,28.8850,-90.0250,10.0,6.5,-9999.0,7.2,'11111222,99999999,11111222' 
LOOP,urn:ioos:station:wmo:lopl1:1,2017-01-06T10:12:00Z,28.8850,-90.0250,10.0,4.3,11.0,6.5,'11111222,11111222,11111222' 
LOOP,urn:ioos:station:wmo:lopl1:1,2017-01-06T11:12:00Z,28.8850,-90.0250,10.0,8.2,21.0,10.1,'11111222,11111222,11111222' 
LOOP,urn:ioos:station:wmo:lopl1:1,2017-01-06T12:12:00Z,28.8850,-90.0250,10.0,8.7,33.0,10.6,'11111222,11111222,11111222' 
LOOP,urn:ioos:station:wmo:lopl1:1,2017-01-06T13:12:00Z,28.8850,-90.0250,10.0,9.9,15.0,11.3,'11111222,11111222,11111222' 
LOOP,urn:ioos:station:wmo:lopl1:1,2017-01-06T14:12:00Z,28.8850,-90.0250,10.0,9.4,43.0,11.2,'11111222,11111222,11111222' 
LOOP,urn:ioos:station:wmo:lopl1:1,2017-01-06T15:12:00Z,28.8850,-90.0250,10.0,9.6,26.0,11.6,'11111222,11111222,11111222' 
LOOP,urn:ioos:station:wmo:lopl1:1,2017-01-06T16:12:00Z,28.8850,-90.0250,10.0,12.6,18.0,15.7,'11111222,11111222,11111222' 
LOOP,urn:ioos:station:wmo:lopl1:1,2017-01-06T17:12:00Z,28.8850,-90.0250,10.0,14.7,35.0,17.0,'11111222,11111222,11111222' 
LOOP,urn:ioos:station:wmo:lopl1:1,2017-01-06T18:12:00Z,28.8850,-90.0250,10.0,13.3,21.0,16.2,'11111222,11111222,11111222' 
LOOP,urn:ioos:station:wmo:lopl1:1,2017-01-06T19:17:00Z,28.8850,-90.0250,10.0,14.6,18.0,17.1,'11111222,11111222,11111222' 
LOOP,urn:ioos:station:wmo:lopl1:1,2017-01-06T20:17:00Z,28.8850,-90.0250,10.0,13.8,30.0,17.5,'11111222,11111222,11111222' 
LOOP,urn:ioos:station:wmo:lopl1:1,2017-01-06T21:17:00Z,28.8850,-90.0250,10.0,13.5,4.0,17.6,'11111222,11111222,11111222' 
LOOP,urn:ioos:station:wmo:lopl1:1,2017-01-06T22:17:00Z,28.8850,-90.0250,10.0,14.3,5.0,17.6,'11111222,11111222,11111222' 
LOOP,urn:ioos:station:wmo:lopl1:1,2017-01-06T23:17:00Z,28.8850,-90.0250,10.0,14.2,18.0,16.4,'11111222,11111222,11111222' 
LOOP,urn:ioos:station:wmo:lopl1:1,2017-01-07T00:17:00Z,28.8850,-90.0250,10.0,15.5,0.0,18.7,'11111222,11111222,11111222' 
LOOP,urn:ioos:station:wmo:lopl1:1,2017-01-07T01:17:00Z,28.8850,-90.0250,10.0,15.6,8.0,20.5,'11111222,11111222,11111222' 
LOOP,urn:ioos:station:wmo:lopl1:1,2017-01-07T01:32:00Z,28.8850,-90.0250,10.0,14.7,359.0,19.9,'11111222,11111222,11111222' 
LOOP,urn:ioos:station:wmo:lopl1:1,2017-01-07T02:32:00Z,28.8850,-90.0250,10.0,13.3,3.0,18.6,'11111222,11111222,11111222' 
LOOP,urn:ioos:station:wmo:lopl1:1,2017-01-07T03:32:00Z,28.8850,-90.0250,10.0,11.3,355.0,16.7,'11111222,11111222,11111222' 
LOOP,urn:ioos:station:wmo:lopl1:1,2017-01-07T04:32:00Z,28.8850,-90.0250,10.0,12.0,3.0,17.0,'11111222,11111222,11111222' 
LOOP,urn:ioos:station:wmo:lopl1:1,2017-01-07T05:32:00Z,28.8850,-90.0250,10.0,12.6,3.0,18.2,'11111222,11111222,11111222' 
LOOP,urn:ioos:station:wmo:lopl1:1,2017-01-07T06:32:00Z,28.8850,-90.0250,10.0,10.5,339.0,14.8,'11111222,11111222,11111222' 
LOOP,urn:ioos:station:wmo:lopl1:1,2017-01-07T07:32:00Z,28.8850,-90.0250,10.0,12.5,341.0,24.3,'11111222,11111222,11111222' 
LOOP,urn:ioos:station:wmo:lopl1:1,2017-01-07T08:32:00Z,28.8850,-90.0250,10.0,12.3,2.0,17.5,'11111222,11111222,11111222' 
LOOP,urn:ioos:station:wmo:lopl1:1,2017-01-07T09:32:00Z,28.8850,-90.0250,10.0,11.1,356.0,17.6,'11111222,11111222,11111222' 
LOOP,urn:ioos:station:wmo:lopl1:1,2017-01-07T10:37:00Z,28.8850,-90.0250,10.0,13.9,0.0,21.6,'11111222,11111222,11111222' 
LOOP,urn:ioos:station:wmo:lopl1:1,2017-01-07T11:37:00Z,28.8850,-90.0250,10.0,11.6,344.0,19.9,'11111222,11111222,11111222' 
LOOP,urn:ioos:station:wmo:lopl1:1,2017-01-07T12:37:00Z,28.8850,-90.0250,10.0,13.0,3.0,17.7,'11111222,11111222,11111222' 
LOOP,urn:ioos:station:wmo:lopl1:1,2017-01-07T13:37:00Z,28.8850,-90.0250,10.0,13.9,3.0,19.2,'11111222,11111222,11111222' 
LOOP,urn:ioos:station:wmo:lopl1:1,2017-01-07T14:37:00Z,28.8850,-90.0250,10.0,12.1,10.0,18.0,'11111222,11111222,11111222' 
LOOP,urn:ioos:station:wmo:lopl1:1,2017-01-07T15:37:00Z,28.8850,-90.0250,10.0,14.3,6.0,20.1,'11111222,11111222,11111222' 
LOOP,urn:ioos:station:wmo:lopl1:1,2017-01-07T16:37:00Z,28.8850,-90.0250,10.0,11.4,337.0,15.5,'11111222,11111222,11111222' 
LOOP,urn:ioos:station:wmo:lopl1:1,2017-01-07T17:37:00Z,28.8850,-90.0250,10.0,9.6,355.0,14.2,'11111222,11111222,11111222' 
LOOP,urn:ioos:station:wmo:lopl1:1,2017-01-07T18:37:00Z,28.8850,-90.0250,10.0,9.7,352.0,15.7,'11111222,11111222,11111222' 
LOOP,urn:ioos:station:wmo:lopl1:1,2017-01-07T19:37:00Z,28.8850,-90.0250,10.0,7.9,356.0,13.5,'11111222,11111222,11111222' 
LOOP,urn:ioos:station:wmo:lopl1:1,2017-01-07T20:37:00Z,28.8850,-90.0250,10.0,9.3,3.0,13.7,'11111222,11111222,11111222' 
LOOP,urn:ioos:station:wmo:lopl1:1,2017-01-07T21:42:00Z,28.8850,-90.0250,10.0,8.6,353.0,13.0,'11111222,11111222,11111222' 
LOOP,urn:ioos:station:wmo:lopl1:1,2017-01-07T22:42:00Z,28.8850,-90.0250,10.0,7.9,343.0,12.4,'11111222,11111222,11111222' 
LOOP,urn:ioos:station:wmo:lopl1:1,2017-01-07T23:42:00Z,28.8850,-90.0250,10.0,11.0,2.0,15.0,'11111222,11111222,11111222' 
LOOP,urn:ioos:station:wmo:lopl1:1,2017-01-08T00:42:00Z,28.8850,-90.0250,10.0,10.7,2.0,14.6,'11111222,11111222,11111222' 
LOOP,urn:ioos:station:wmo:lopl1:1,2017-01-08T01:42:00Z,28.8850,-90.0250,10.0,12.8,3.0,16.8,'11111222,11111222,11111222' 
LOOP,urn:ioos:station:wmo:lopl1:1,2017-01-08T02:42:00Z,28.8850,-90.0250,10.0,13.7,9.0,17.1,'11111222,11111222,11111222' 
LOOP,urn:ioos:station:wmo:lopl1:1,2017-01-08T03:42:00Z,28.8850,-90.0250,10.0,14.5,7.0,18.9,'11111222,11111222,11111222' 
LOOP,urn:ioos:station:wmo:lopl1:1,2017-01-08T04:42:00Z,28.8850,-90.0250,10.0,14.1,17.0,17.3,'11111222,11111222,11111222' 
LOOP,urn:ioos:station:wmo:lopl1:1,2017-01-08T05:42:00Z,28.8850,-90.0250,10.0,13.8,19.0,16.3,'11111222,11111222,11111222' 
LOOP,urn:ioos:station:wmo:lopl1:1,2017-01-08T06:42:00Z,28.8850,-90.0250,10.0,13.7,21.0,18.4,'11111222,11111222,11111222' 
LOOP,urn:ioos:station:wmo:lopl1:1,2017-01-08T07:42:00Z,28.8850,-90.0250,10.0,12.4,20.0,15.4,'11111222,11111222,11111222' 
LOOP,urn:ioos:station:wmo:lopl1:1,2017-01-08T08:42:00Z,28.8850,-90.0250,10.0,12.7,31.0,16.6,'11111222,11111222,11111222' 
LOOP,urn:ioos:station:wmo:lopl1:1,2017-01-08T09:42:00Z,28.8850,-90.0250,10.0,12.5,25.0,15.2,'11111222,11111222,11111222' 
LOOP,urn:ioos:station:wmo:lopl1:1,2017-01-08T10:42:00Z,28.8850,-90.0250,10.0,12.3,26.0,14.4,'11111222,11111222,11111222' 
LOOP,urn:ioos:station:wmo:lopl1:1,2017-01-08T11:42:00Z,28.8850,-90.0250,10.0,11.4,24.0,13.9,'11111222,11111222,11111222' 
LOOP,urn:ioos:station:wmo:lopl1:1,2017-01-08T12:47:00Z,28.8850,-90.0250,10.0,12.2,30.0,15.8,'11111222,11111222,11111222' 
LOOP,urn:ioos:station:wmo:lopl1:1,2017-01-08T13:47:00Z,28.8850,-90.0250,10.0,12.5,29.0,16.2,'11111222,11111222,11111222' 
LOOP,urn:ioos:station:wmo:lopl1:1,2017-01-08T14:52:00Z,28.8850,-90.0250,10.0,12.2,22.0,14.9,'11111222,11111222,11111222' 
LOOP,urn:ioos:station:wmo:lopl1:1,2017-01-08T15:52:00Z,28.8850,-90.0250,10.0,11.5,22.0,14.0,'11111222,11111222,11111222' 
LOOP,urn:ioos:station:wmo:lopl1:1,2017-01-08T16:52:00Z,28.8850,-90.0250,10.0,8.8,35.0,13.6,'11111222,11111222,11111222' 
LOOP,urn:ioos:station:wmo:lopl1:1,2017-01-08T17:52:00Z,28.8850,-90.0250,10.0,7.9,52.0,9.9,'11111222,11111222,11111222' 
LOOP,urn:ioos:station:wmo:lopl1:1,2017-01-08T18:52:00Z,28.8850,-90.0250,10.0,8.4,50.0,10.8,'11111222,11111222,11111222' 
LOOP,urn:ioos:station:wmo:lopl1:1,2017-01-08T19:52:00Z,28.8850,-90.0250,10.0,8.0,38.0,10.7,'11111222,11111222,11111222' 
LOOP,urn:ioos:station:wmo:lopl1:1,2017-01-08T20:52:00Z,28.8850,-90.0250,10.0,8.3,63.0,9.9,'11111222,11111222,11111222' 
LOOP,urn:ioos:station:wmo:lopl1:1,2017-01-08T21:52:00Z,28.8850,-90.0250,10.0,6.8,54.0,10.0,'11111222,11111222,11111222' 
LOOP,urn:ioos:station:wmo:lopl1:1,2017-01-08T22:52:00Z,28.8850,-90.0250,10.0,6.7,73.0,9.0,'11111222,11111222,11111222' 
LOOP,urn:ioos:station:wmo:lopl1:1,2017-01-08T23:52:00Z,28.8850,-90.0250,10.0,6.3,61.0,8.5,'11111222,11111222,11111222' 
LOOP,urn:ioos:station:wmo:lopl1:1,2017-01-09T00:52:00Z,28.8850,-90.0250,10.0,6.5,42.0,8.5,'11111222,11111222,11111222' 
LOOP,urn:ioos:station:wmo:lopl1:1,2017-01-09T01:52:00Z,28.8850,-90.0250,10.0,7.8,68.0,10.1,'11111222,11111222,11111222' 
LOOP,urn:ioos:station:wmo:lopl1:1,2017-01-09T02:52:00Z,28.8850,-90.0250,10.0,7.6,72.0,9.8,'11111222,11111222,11111222' 
LOOP,urn:ioos:station:wmo:lopl1:1,2017-01-09T03:52:00Z,28.8850,-90.0250,10.0,7.6,64.0,10.0,'11111222,11111222,11111222' 